Regional Weather Roundup
Issued by NWS Upton, NY

Current Version | Previous Version | Text Only | Print | Product List | Glossary On
Versions: 1 2 3 4 5 6 7 8 9 10 11 12 13 14 15 16 17 18 19 20 21 22 23 24 25 26 27
000
ASUS41 KOKX 200405
RWROKX

REGIONAL WEATHER ROUNDUP
NATIONAL WEATHER SERVICE NEW YORK NY
1200 AM EDT SUN APR 20 2014

NOTE: "FAIR" INDICATES FEW OR NO CLOUDS BELOW 12,000 FEET WITH NO
SIGNIFICANT WEATHER AND/OR OBSTRUCTIONS TO VISIBILITY.

NYZ071-072-176-178-NJZ106-104-200500-
NEW YORK CITY METRO AREA


CITY           SKY/WX    TMP DP  RH WIND       PRES   REMARKS
CENTRAL PARK   PTCLDY    54  25  32 NE7       30.37S
LAGUARDIA APRT PTCLDY    53  24  32 NE14      30.34S
KENNEDY INTL   MOCLDY    54  24  31 N14G20    30.35R
NEWARK/LIBERTY MOCLDY    53  25  33 N12       30.34S
TETERBORO      PTCLDY    55  24  30 NE7       30.34S
$$

NYZ177-179-078>081-200500-
LONG ISLAND NEW YORK

CITY           SKY/WX    TMP DP  RH WIND       PRES   REMARKS
FARMINGDALE    MOCLDY    51  27  39 N13       30.35R
ISLIP          MOCLDY    53  29  39 N8        30.34R
SHIRLEY        MOCLDY    50  29  44 N6        30.36R
WESTHAMPTON    MOCLDY    48  32  53 NE5       30.36R
MONTAUK POINT    N/A     50  33  52 E6        30.38R
$$

NYZ052-065-067-200500-
HUDSON VALLEY

CITY           SKY/WX    TMP DP  RH WIND       PRES   REMARKS
WHITE PLAINS   PTCLDY    49  23  36 N8        30.35R
NEWBURGH       CLEAR     46  27  46 E12       30.39S
MONTGOMERY     PTCLDY    46  27  47 NE8       30.38R
POUGHKEEPSIE   CLEAR     46  26  45 CALM      30.38R
ALBANY         PTCLDY    44  24  45 N10       30.42S
$$

NJZ001-105-106-008-010-013-015-019>022-104-200500-
NEW JERSEY

CITY           SKY/WX    TMP DP  RH WIND       PRES   REMARKS
NEWARK/LIBERTY MOCLDY    53  25  33 N12       30.34S
TETERBORO      PTCLDY    55  24  30 NE7       30.34S
CALDWELL       PTCLDY    52  24  33 NE6       30.36R
MORRISTOWN     PTCLDY    52  23  32 CALM      30.36S
SOMERVILLE     PTCLDY    51  26  37 N5        30.33R
LINDEN         FAIR      56  25  29 NE9       30.37R
SUSSEX         PTCLDY    42  29  59 CALM      30.37R
ANDOVER          N/A     45  33  63 CALM      30.36R
TRENTON        MOCLDY    49  29  46 E8        30.33R
MILLVILLE      CLOUDY    42  36  79 CALM      30.31S
ATLANTIC CITY  CLOUDY    41  35  79 CALM      30.31S
WRIGHTSTOWN    MOCLDY    45  34  66 NE2       30.31R
TOMS RIVER     CLOUDY    39  32  75 CALM      30.33S
BELMAR         MOCLDY    46  32  57 N5        30.33S
$$

PAZ047>061-062-071-200500-
EASTERN PENNSYLVANIA

CITY           SKY/WX    TMP DP  RH WIND       PRES   REMARKS
PHILADELPHIA   MOCLDY    52  36  54 CALM      30.33S
ALLENTOWN      MOCLDY    48  24  39 NE5       30.35R
SCRANTON       PTCLDY    44  25  47 VRB3      30.36S
$$

CTZ002-004>006-009-010-012-RIZ004-006-007-MAZ004-011-015-200500-
SOUTHERN NEW ENGLAND
 IN CT

CITY           SKY/WX    TMP DP  RH WIND       PRES   REMARKS
BRADLEY INTL   CLEAR     45  26  47 N8        30.39R
HARTFORD       CLEAR     49  23  36 NE12G22   30.40R
DANBURY        PTCLDY    42  28  57 CALM      30.38R
WTRBRY/OXFORD  CLEAR     46  25  42 NE6       30.40R
BRIDGEPORT     PTCLDY    52  30  43 NE8       30.37R
MERIDEN        PTCLDY    50  27  40 N7        30.38R
NEW HAVEN      PTCLDY    51  27  39 N8        30.37R
CHESTER        FAIR      50  28  43 NE5       30.38R
GROTON         MOCLDY    48  34  58 E8        30.38R
WILLIMANTIC    PTCLDY    44  30  57 NE3       30.39R

 IN RI

CITY           SKY/WX    TMP DP  RH WIND       PRES   REMARKS
PROVIDENCE     PTCLDY    47  24  40 N14       30.40R
BLOCK ISLAND   MOCLDY    45  36  70 E8        30.38R
WESTERLY       PTCLDY    45  35  68 N6        30.39R

 IN MA

CITY           SKY/WX    TMP DP  RH WIND       PRES   REMARKS
BOSTON         PTCLDY    46  23  40 NW8       30.42R
WORCESTER      CLEAR     41  24  51 NE5       30.40R
WESTFIELD      CLEAR     46  26  45 NE7       30.39R
PROVINCETOWN   CLEAR     43  34  70 MISG      30.40R
NANTUCKET      MOCLDY    45  34  65 N8        30.37S
$$

ANZ330-335-338-340-345-350-353-355-200500-
COASTAL MARINE OBSERVATIONS


STATION/POSITION TIME  SKY/WX   TEMP    WIND        PRES    VSBY  WAVE
                                AIR SEA DIR/SP/G                  HT/PER
                 (UTC)          (F)     (DEG/KT/KT) (MB)    (MI)  (FT/S)
NY HARB ENTRANCE 0400            49 46  170/  6/  6 1027.0
4S FIRE IS       0300               46                N/A           3/ 9
23SW MTP         0400            45 43   90/  8/ 10 1027.4          4/ 9
HUDSON CANYON    0300            46 45  360/  4/  6 1025.8          4/10
EXECUTION ROCKS  0400            50 32   20/ 10/ 12   N/A
WESTERN LI SOUND 0400            51      20/ 10/ 12   N/A           1
CENTRAL LI SOUND 0300            48 43   70/ 10/ 12   N/A           0
EASTERN LI SOUND NOT AVBL
ROBBINS REEF     0400            54      10/ 13/ 19   N/A
$$


>>>>>>>>>>>>>>>>>>>>>>>>>>>> KEY <<<<<<<<<<<<<<<<<<<<<<<<<<<
>                                                          <
>     SKY/WX - SKY CONDITION/PRESENT WEATHER               <
>     TMP    - TEMPERATURE IN FAHRENHEIT                   <
>     DP     - DEWPOINT IN FAHRENHEIT                      <
>     RH     - RELATIVE HUMIDITY IN PERCENT                <
>     WIND   - DIRECTION AND SPEED IN MPH                  <
>     PRES   - MEAN SEA LEVEL PRESSURE IN INCHES OF HG     <
>     WCI    - WIND CHILL INDEX                            <
>     VSB    - VISIBILITY IN MILES                         <
>     HX     - HEAT INDEX                                  <
>     TC     - TEMPERATURE IN CELSIUS                      <
>     VRB    - VARIABLE WIND DIRECTION                     <
>                                                          <
>>>>>>>>>>>>>>>>>>>>>>>>>>>> KEY <<<<<<<<<<<<<<<<<<<<<<<<<<<





USA.gov is the U.S. government's official web portal to all federal, state and local government web resources and services.